DELTA 1 DEB, 10758

Orbit data source: Space-Track

DELTA 1 DEB, 10758 is space debris in SSO originally from a launch on Thu, 29 Jul 1976 UTC launched from the Air Force Western Test Range (AFWTR). Debris objects in space refer to the collection of defunct objects orbiting the Earth. Examples of debris include non-operational satellites, rocket bodies, and fragments generated from explosions, collisions, or faulty payload assembly.

Loading next visibility...
Identifier
10758, 1976-077BF
Orbit
SSO
Country
Flag of USUS
Related business
Manufacturer
Unknown
Mission
Spacecraft
Bus & Motor
Unknown
Mass
Unknown
Launch date (UTC)
1976-07-29 (50 years ago)
Launch vehicle
Unknown
Launch site
Air Force Western Test Range (AFWTR)
Object type
Payload
Rocket body
Debris
Shape & HBR
Unknown shape, 0.3 m
Radar Cross Section
Medium (>0.1 m² and <1 m²)

Expand to show TLE details & history
Last TLE update: 3 days ago

TLE from 3 days ago
0 DELTA 1 DEB
1 10758U 76077BF  26171.35024604  .00000051  00000-0  96119-3 0  9994
2 10758 102.4682 124.3904 0154715 184.6990 330.0855 12.12854300209459
Epoch: 2026-06-20T08:24Z
TLE epoch observation values (Epoch: 2026-06-20T08:24:21.257Z)
Latitude
25.48547°
Longitude
-84.24401°
Altitude
1,519.701 km
Speed
7.155 km/s
True Right ascension
20h 41m 38s
True Declination
25° 21' 54"
Sunlit
Object was in daylight at epoch
Visualization orbit readout
Latitude
Unknown
Longitude
Unknown
Altitude
Unknown
Speed
Unknown
Apparent Right ascension
Unknown
Apparent Declination
Unknown
Sunlit
N/A
Visualization observer readout
Local Sidereal Time
10:02:30
Azimuth
Unknown
Elevation
Unknown
Doppler factor
Unknown
Orbital elements
Apogee altitude
1,745.221 km
Perigee altitude
1,497.689 km
Semi-major axis
7,999.592 km
Eccentricity
0.01547
Inclination
102.4682°
RAAN
124.3904°
Arg. of periapsis
184.699°
True anomaly
329.18631°
Mean anomaly
330.0855°
Eccentric anomaly
329.63743°
Mean motion
3.03348 °/min
Orbital period
118.68 mins
BSTAR
0.00096119
Loading maneuver chart data...
Computing Atmospheric mass density...
Loading historical data...
Loading historical data...
Loading historical data...
Loading historical data...
Loading historical data...
Loading historical data...
Loading historical data...

Documentation

Showing up to 5 results
|